Location: Cantaing
(50.1487°N, 3.1675°E)
Time: 06:21:52
(UTC+00:00)

Cosmos 1328 - Pass Details

Date: 14 January 2026
Orbit: 461 x 472 km, 82.5° (Epoch: 10 February)

Event Time Altitude Azimuth Distance (km) Brightness Sun altitude
Exits shadow 06:23:13 - 351° (N) 2,553 7.0 -12.1°
Rises 06:23:17 0° 352° (N) 2,524 6.9 -12.0°
Reaches altitude 10° 06:25:24 10° 355° (N) 1,644 6.0 -11.7°
Maximum altitude 06:28:58 68° 79° (ENE) 514 3.9 -11.2°
Drops below altitude 10° 06:32:32 10° 163° (SSE) 1,637 6.8 -10.7°
Sets 06:34:38 0° 166° (SSE) 2,512 7.7 -10.3°
